Regional Weather Roundup
Issued by NWS

Home | Current Version | Previous Version | Graphics & Text | Print | Product List | Glossary On
Versions: 1 2 3 4 5 6 7 8 9 10 11 12 13 14 15 16 17 18 19 20 21 22 23 24 25 26 27 28 29 30 31 32 33 34 35 36 37 38 39 40 41 42 43 44 45 46 47 48 49 50
000
ASUS45 KCYS 271310
RWRWY

WYOMING REGIONAL WEATHER ROUNDUP
NATIONAL WEATHER SERVICE CHEYENNE WY
700 AM MDT MON APR 27 2015

NOTE:  "FAIR" INDICATES FEW OR NO CLOUDS BELOW 12,000 FEET
WITH NO SIGNIFICANT WEATHER AND/OR OBSTRUCTIONS TO VISIBILITY.

WYZ001-271400-
YELLOWSTONE NATIONAL PARK

CITY           SKY/WX    TMP DP  RH WIND       PRES   REMARKS
LK YELLOWSTONE   N/A     24  21  88 CALM      30.29R
W YELLOWSTONE  NOT AVBL

$$
WYZ002>013-054>058-071-098>099-271400-
NORTHERN WYOMING

CITY           SKY/WX    TMP DP  RH WIND       PRES   REMARKS
JACKSON        CLEAR     32  30  93 N9        30.24R WCI  24
CODY           CLOUDY    34  30  86 CALM      30.29R
GREYBULL       CLOUDY    38  35  89 CALM      30.30R
WORLAND        CLOUDY    38  33  82 NE5       30.29R WCI  34
SHERIDAN       CLOUDY    36  33  89 NW3       30.30R
BUFFALO        CLOUDY    34  32  92 N6        30.28R WCI  29
GILLETTE       LGT SNOW  33  32  96 N8        30.28R FOG     WCI  26
HULETT         LGT SNOW  34  32  93 CALM      30.29R
NEWCASTLE      PTSUNNY   37  37 100 NW7       30.25R WCI  32

$$
WYZ014>020-022>026-101>103-271400-
CENTRAL WYOMING

CITY           SKY/WX    TMP DP  RH WIND       PRES   REMARKS
BIG PINEY      CLOUDY    37  30  75 N6        30.22R WCI  32
PINEDALE       CLOUDY    36  36 100 CALM      30.22R
DUBOIS         SNOW      32  32 100 SE12      30.23R VSB 1/2 WCI  23
LANDER         CLOUDY    35  34  96 CALM      30.25R
RIVERTON       CLOUDY    36  32  85 E3        30.27R
CASPER         CLOUDY    33  31  92 N6        30.27R WCI  28
DOUGLAS        CLOUDY    37  35  92 NW12      30.25R FOG     WCI  29

$$
WYZ021-027>030-104>119-271400-
SOUTHERN WYOMING

CITY           SKY/WX    TMP DP  RH WIND       PRES   REMARKS
EVANSTON       CLOUDY    34  31  88 N9        30.21R WCI  27
KEMMERER       CLOUDY    34  32  93 SW7       30.21R WCI  28
FORT BRIDGER   CLOUDY    36  36 100 W7        30.24R WCI  30
ROCK SPRINGS   FLURRIES  35  32  88 NE10      30.21R WCI  27
DIXON          CLOUDY    35  34  97 CALM      30.18R
RAWLINS        CLOUDY    36  30  79 N8        30.19R WCI  30
SARATOGA       CLOUDY    34  34 100 MISG      30.19R
LARAMIE        CLOUDY    36  33  89 NE6       30.17R WCI  31
CHEYENNE       CLOUDY    34  32  92 N3        30.20R FOG
TORRINGTON     CLOUDY    43  40  89 NE8       30.22R
PINE BLUFFS    CLOUDY    37  36  93 N3        30.21R FOG

$$



USA.gov is the U.S. government's official web portal to all federal, state and local government web resources and services.